This demonstration page uses our WeatherBlox Daily Observations layout. Learn more.

41.55636, -103.73856

Hourly Observations for April 15, 2019

Temp ( °F °C ) Dew Point ( °F °C ) Humidity (%) Winds ( mph kmh ) Pressure ( in mb ) Visibility ( mi km ) Precip ( " mm )
12:53 am 00:53 Clear 45 7.2 34 1.1 66 66 NW 5 7 29.62 1003 10 16.09344 0 0
1:53 am 01:53 Mostly Cloudy 51 10.6 35 1.7 54 54 W 3 6 29.59 1002 10 16.09344 0 0
2:53 am 02:53 Mostly Clear 50 10 36 2.2 59 59 WSW 3 6 29.59 1002 10 16.09344 0 0
3:53 am 03:53 Mostly Clear 45 7.2 37 2.8 74 74 ENE 6 9 29.56 1001 10 16.09344 0 0
4:53 am 04:53 Cloudy 46 7.8 38 3.3 73 73 Calm 29.56 1001 10 16.09344 0 0
5:53 am 05:53 Mostly Cloudy 46 7.8 37 2.8 71 71 Calm 29.59 1002 10 16.09344 0 0
6:53 am 06:53 Mostly Cloudy 49 9.4 38 3.3 66 66 SSW 3 6 29.65 1004 10 16.09344 0 0
7:53 am 07:53 Cloudy 49 9.4 40 4.4 71 71 SSE 3 6 29.68 1005 10 16.09344 0 0
8:53 am 08:53 Cloudy 53 11.7 40 4.4 61 61 Calm 29.68 1005 10 16.09344 0 0
9:53 am 09:53 Mostly Cloudy 59 15 40 4.4 49 49 Calm 29.68 1005 10 16.09344 0 0
10:53 am 10:53 Partly Cloudy 65 18.3 41 5 42 42 W 17 28 29.65 1004 10 16.09344 0 0
11:53 am 11:53 Mostly Cloudy 65 18.3 39 3.9 39 39 W 20 31 29.62 1003 10 16.09344 0 0
12:53 pm 12:53 Partly Cloudy 67 19.4 41 5 39 39 WNW 15 24 29.65 1004 10 16.09344 0 0
1:53 pm 13:53 Partly Cloudy 66 18.9 39 3.9 37 37 WNW 14 22 29.62 1003 10 16.09344 0 0
2:53 pm 14:53 Cloudy with Light Rain 59 15 48 8.9 67 67 SW 13 20 29.68 1005 7 11.265408 0.01 0.254
3:53 pm 15:53 Cloudy with Light Rain 56 13.3 50 10 81 81 SW 6 9 29.71 1006 9 14.484096 0.02 0.508
4:53 pm 16:53 Cloudy 57 13.9 51 10.6 81 81 NNE 9 15 29.68 1005 10 16.09344 0.01 0.254
5:53 pm 17:53 Cloudy 57 13.9 50 10 78 78 E 9 15 29.71 1006 10 16.09344 0 0
6:53 pm 18:53 Partly Cloudy 54 12.2 50 10 87 87 E 6 9 29.71 1006 10 16.09344 0 0
7:53 pm 19:53 Cloudy 52 11.1 48 8.9 86 86 NE 6 9 29.71 1006 10 16.09344 0 0
8:53 pm 20:53 Cloudy 51 10.6 44 6.7 77 77 NE 10 17 29.71 1006 10 16.09344 0 0
9:53 pm 21:53 Mostly Cloudy 49 9.4 43 6.1 80 80 ENE 8 13 29.71 1006 10 16.09344 0 0
10:53 pm 22:53 Clear 46 7.8 42 5.6 86 86 S 6 9 29.74 1007 10 16.09344 0 0
11:53 pm 23:53 Clear 42 5.6 39 3.9 89 89 E 5 7 29.74 1007 10 16.09344 0 0

Powered by AerisWeather